KDAY Airport Diagram

We have created a template for each of the higher traffic airports in the vZID airspace. They include KCMH, KCRW, KCVG, KDAY, KIND, KLEX and KSDF. You wil find usefull information including the airport diagram, weather, and specific airport procedures.

KDAY Weather

[Source: ADDS]
METAR
KDAY 241556Z 19012KT 10SM FEW250 07/M03 A2993 RMK AO2 SLP142 T00671028 =
TAF
KDAY 241130Z 2412/2512 19008KT P6SM SKC FM241600 20012G20KT P6SM FEW250 FM242200 20012KT P6SM SCT250 FM250200 20012KT P6SM BKN250 WS020/22040KT FM250800 23012KT P6SM BKN090 =

DAY Operations

Calm Wind Configuration is runways 24L and 24R

Runway 24L typically departs south and west

Runway 24R typicall departs north and east

 

JSN Epic template designed by JoomlaShine.com